CAPE
0 0 3 0 0 0 0 0 444 523 263 257 164 90 10 1 1 0 0 0 0 0 0 2 6 3 6 12 6 48 281 455 473 789 2231 2825 2865 2631 3169 3130 3096 3255 3189 2911
0 0 0 0 0 0 0 0 117 231 320 89 6 19 11 2 0 0 0 0 0 0 0 0 0 0 2 10 5 1 5 24 153 567 758 1618 2326 2454 2651 2998 3259 3275 3035 3130
0 0 0 0 0 0 0 0 485 509 86 30 1 0 3 0 0 0 0 0 0 0 0 0 0 0 0 0 0 0 0 0 3 17 136 195 612 1925 2310 2393 2374 2893 2991 3129
1 1 0 0 0 0 0 0 339 486 207 13 1 0 1 0 0 0 0 0 0 0 0 0 0 0 0 1 0 0 0 0 0 0 3 25 232 188 319 1003 2252 2247 2422 2818
0 2 5 0 0 0 0 1 135 328 113 2 0 0 0 0 0 0 0 0 0 0 0 0 0 0 0 0 6 0 1 6 0 0 0 0 3 1 13 121 319 1459 2127 2287
15 3 0 22 0 0 0 28 8 22 70 9 2 0 0 0 0 0 0 0 0 0 0 0 0 0 0 0 0 0 0 3 4 5 6 0 0 3 35 80 166 493 1069 2012
30 28 50 1 0 0 0 73 9 8 1 1 2 0 0 0 0 0 0 0 0 0 0 0 0 0 0 0 0 0 0 0 1 11 0 12 8 6 0 31 182 268 711 1554
4 48 77 0 0 0 43 5 0 0 2 7 0 0 0 0 0 0 0 0 0 0 0 0 0 0 0 6 9 12 13 4 0 1 3 0 0 0 0 0 102 296 396 807
110 178 13 6 8 4 0 8 1 0 0 0 0 0 0 0 0 0 0 0 0 0 0 0 0 0 0 6 11 14 7 5 23 8 0 3 8 0 0 0 9 210 220 256
10 97 14 1 0 0 0 0 0 0 0 0 0 0 0 0 0 2 4 0 0 0 0 3 1 3 0 3 17 10 15 16 5 0 0 0 0 0 0 0 0 0 0 0
0 5 1 0 0 0 0 0 0 0 0 0 0 0 0 0 2 1 3 5 3 2 3 5 3 4 3 9 14 2 5 2 1 0 0 0 2 5 1 0 0 0 0 0
26 21 30 24 23 8 0 0 0 0 0 0 0 1 0 1 0 3 4 3 7 8 10 8 5 6 4 4 7 5 4 1 0 0 0 0 0 0 0 0 0 0 0 0
47 25 15 0 0 1 1 0 0 0 0 0 0 0 0 3 3 0 1 0 1 3 6 11 12 7 6 4 8 5 2 1 0 0 0 0 3 2 0 0 0 0 0 0
73 63 31 3 2 0 0 1 0 0 1 0 4 1 0 10 0 5 1 0 1 1 2 4 7 8 6 10 18 16 6 0 0 0 0 1 2 0 0 0 0 0 0 0
23 9 29 7 14 34 11 7 4 0 3 7 5 2 6 13 13 4 1 0 0 1 1 1 0 6 14 2 5 4 0 0 0 0 2 0 0 7 4 3 2 0 1 0
6 14 20 20 58 5 11 30 24 7 10 15 19 15 0 9 21 15 9 0 0 3 2 3 7 23 7 13 11 0 0 1 0 0 2 3 6 12 8 9 6 8 3 2
35 57 38 12 34 47 17 9 19 26 47 45 59 68 8 10 16 8 14 9 5 7 5 7 15 3 16 8 0 0 0 0 0 0 0 1 12 15 14 17 23 18 9 1
7 8 12 16 41 50 17 10 25 25 59 22 46 81 49 19 20 43 38 10 7 15 21 36 24 4 1 7 0 0 0 0 0 0 0 0 3 8 14 23 30 21 18 24
18 18 17 6 16 9 5 8 8 3 21 110 119 102 116 62 61 52 65 21 29 15 29 45 6 4 5 0 0 0 0 0 0 0 1 5 6 7 10 18 20 23 26 28
100 110 82 57 13 10 34 36 84 75 64 107 204 158 148 158 125 56 48 46 38 40 48 31 10 8 22 4 0 0 0 1 2 5 6 7 5 5 8 16 23 23 25 21
263 397 177 156 173 158 73 255 29 72 75 110 74 152 291 337 206 157 41 24 37 69 28 26 10 0 3 0 0 1 3 5 6 6 10 14 7 2 3 16 21 23 25 22
52 137 160 221 199 241 166 28 50 122 265 42 153 157 427 270 296 239 47 109 74 16 21 11 21 15 4 0 0 0 4 2 2 7 6 8 11 12 10 2 8 17 15 15
23 25 41 55 43 123 74 262 242 190 85 196 162 525 588 495 6 37 122 214 37 28 21 43 51 13 0 0 0 6 15 1 6 7 3 7 10 8 13 9 13 14 10 13
28 45 48 29 36 63 177 369 242 161 121 65 226 398 344 199 30 8 62 17 32 0 10 4 23 11 0 0 13 26 22 1 14 10 0 1 12 13 10 10 10 8 9 6
25 49 49 21 28 94 237 345 214 223 236 134 165 153 236 0 20 21 41 34 0 0 19 16 23 11 6 24 71 149 179 72 17 15 15 5 11 7 11 1 8 8 5 9
21 3 15 37 80 161 297 276 17 20 98 169 55 114 33 40 32 55 61 60 99 8 27 31 27 38 59 61 76 12 78 64 7 0 13 14 2 12 9 1 5 6 4 5
7 0 16 14 23 10 26 0 4 9 9 0 5 16 39 64 54 35 20 30 56 45 42 39 34 16 52 23 21 30 38 94 6 11 2 6 6 4 6 3 3 1 2 8
CIN
0 0 -1 0 0 0 0 0 -34 -1 -4 -17 -44 -96 -186 0 0 0 0 0 0 0 0 0 0 0 0 0 0 -165 -69 -66 -137 -80 -26 -4 -7 -12 -4 -4 -4 -3 -3 -6
0 0 0 0 0 0 0 0 -19 -4 -3 -27 -69 -88 0 0 0 0 0 0 0 0 0 0 0 0 0 0 0 0 0 -338 -159 -71 -55 -20 -10 -2 -2 -4 -3 -5 -3 -2
0 0 0 0 0 0 0 0 -28 -35 -11 -28 -15 -2 0 0 0 0 0 0 0 0 0 0 0 0 0 0 0 0 0 0 0 -145 -133 -139 -67 0 -1 -3 -12 -5 -3 -3
-2 -2 0 0 0 0 0 0 -2 -9 -1 -20 -23 0 -1 0 0 0 0 0 0 0 0 0 0 0 0 -1 -6 0 0 0 0 0 0 -123 -103 -141 -121 -32 0 -4 -6 -3
-7 -3 -3 0 0 0 0 -1 -1 -3 -4 -32 -3 0 0 0 0 0 0 0 0 0 0 0 0 0 0 0 -4 -1 -1 -3 0 0 0 0 0 0 -157 -151 -135 -3 -1 -3
-1 -1 0 -9 0 0 0 -1 -10 -3 -2 -3 -1 0 0 0 0 0 0 0 0 0 0 0 0 0 0 0 0 0 0 0 0 0 0 0 0 0 -133 -126 -120 -66 -15 0
-2 -3 -10 -3 0 0 0 -10 -29 -12 -1 -1 -3 0 0 0 0 0 0 0 0 0 0 0 0 0 0 0 0 0 0 0 -1 0 0 -1 0 -1 0 -95 -76 -76 -21 0
-1 -1 -3 0 0 0 -64 -34 0 0 -5 -17 0 0 0 0 0 0 0 0 0 0 0 0 0 0 0 0 0 0 0 0 0 -1 0 0 0 0 0 0 -39 -31 -32 -8
-3 -6 -20 -4 -29 -50 0 -162 -132 0 0 0 0 0 0 0 0 0 0 0 0 0 0 -1 0 0 0 0 0 0 0 0 0 0 0 -2 -2 0 0 0 -4 -22 -29 -43
-8 -4 -5 -18 0 0 0 0 0 0 0 0 0 0 0 0 0 -1 -1 0 0 0 0 0 0 0 0 0 0 0 0 0 0 0 0 0 -1 0 0 0 0 0 0 0
0 -1 -1 0 0 0 0 0 0 0 0 0 0 0 0 0 -1 -1 0 0 0 0 0 0 0 0 0 0 0 0 0 0 0 0 0 0 -2 -2 -2 0 0 0 0 0
0 -5 -7 -1 -2 0 0 0 0 0 0 0 0 -2 0 -1 0 0 0 0 0 0 0 0 0 0 0 0 0 0 0 0 0 0 0 0 0 0 0 0 0 0 0 0
-5 -6 -1 0 0 -1 0 0 0 0 0 0 0 0 0 0 0 0 0 0 0 0 0 0 0 0 0 0 0 0 0 0 0 0 0 0 0 0 0 0 0 0 0 0
-13 -7 -1 0 -1 0 0 0 0 0 0 0 0 -1 0 -1 0 0 0 0 0 0 0 0 0 0 0 0 0 0 0 0 0 0 0 0 0 0 0 0 0 0 0 0
-7 -2 -12 -31 -21 -3 -1 0 -1 0 0 0 -1 0 0 0 -2 0 0 0 0 0 0 0 0 0 -1 0 0 0 0 0 0 0 0 -1 0 0 0 0 0 0 0 0
-5 0 -5 -17 -1 -14 -22 -1 0 0 -1 -1 0 -2 0 -1 -1 -1 0 0 0 0 -2 -1 -3 -1 0 0 0 0 0 -1 0 0 0 0 0 0 0 0 0 0 0 0
-30 -18 -32 -7 -10 -5 -9 -21 -8 0 0 0 -1 -3 -7 -1 0 -1 0 0 0 -1 0 -2 0 0 -2 0 -1 0 0 0 0 0 0 0 0 0 0 0 0 0 0 0
0 -28 -45 -1 -44 0 -7 -19 -7 -3 -2 -1 0 -9 -7 -3 -6 -1 -6 -1 -1 -2 -2 -2 -1 -1 -1 -1 0 0 0 0 0 0 0 0 0 0 0 0 0 0 0 0
-19 -1 -1 -3 0 0 -8 -4 -3 -3 -1 -1 0 0 -12 -7 -13 -10 -5 -1 -1 -1 -4 0 -25 -17 -2 0 0 0 0 0 0 0 0 0 0 0 0 0 0 0 0 0
-6 -13 -11 -6 -11 -2 0 0 -1 -1 -4 -1 -4 0 -1 -2 -9 -21 -12 -1 0 -5 -1 -7 -24 -2 -1 -4 0 0 0 0 0 0 0 0 0 0 0 0 0 0 0 0
-2 -1 -1 -17 -3 -10 -15 -1 -35 -14 -20 -8 -3 -7 -1 -2 -9 -9 -22 0 -5 -4 -12 -17 -9 -1 0 0 0 0 0 0 0 0 0 0 -1 0 0 0 0 0 0 0
-10 -4 -12 -3 0 -2 -27 -99 -34 -1 -4 -74 -7 -15 -1 -6 -8 -6 -20 -1 -5 -67 -18 -20 -9 -30 -4 0 0 0 -1 -3 0 0 0 0 0 0 0 0 0 0 0 0
-4 -15 -9 -5 -5 -1 -7 -5 -1 -27 -48 -18 -21 0 -2 -9 -47 -18 -1 -1 -2 -47 -6 -1 -41 -91 0 0 0 0 0 -1 0 -1 0 0 0 -1 0 0 -1 0 0 0
-1 -2 -2 -1 -3 -6 0 0 0 0 0 -3 0 0 -5 -4 -53 -37 -6 -8 -2 0 -18 -12 -58 -139 -1 0 -12 -1 -1 -7 0 0 0 0 0 0 0 0 0 0 0 0
-1 -5 -4 -14 -15 -3 0 0 0 -5 -1 0 0 0 -2 0 -11 -19 -18 -5 0 -4 -3 -19 -97 -140 -56 -21 -2 -6 -4 0 -11 0 0 0 0 0 0 0 0 0 0 0
0 0 0 -11 -1 0 0 -2 -6 -20 -3 0 -2 -2 -1 -2 -10 -6 -4 -19 -1 -6 -13 -13 -14 -40 -5 -15 -1 -10 -2 -8 -49 -1 -1 0 0 0 0 0 0 0 0 0
-1 0 -2 -1 -3 -1 -2 0 -3 0 -1 -3 -19 -20 -2 -2 -14 -22 -63 -29 -4 -1 0 -4 -2 -14 -3 -3 -1 -7 -20 -6 -9 -3 -1 0 0 0 0 0 0 0 0 0
Wind_Speed
20 15 20 20 19 6 12 14 16 14 18 17 17 16 13 15 14 17 17 17 15 16 14 12 13 13 12 11 13 11 13 12 13 12 3 5 6 8 7 9 9 9 8 8
5 9 15 23 21 12 14 14 13 8 18 20 18 16 14 13 14 15 16 17 16 15 15 13 13 8 8 5 10 11 10 11 11 11 11 12 7 5 6 5 7 8 10 9
3 2 5 4 5 2 8 4 21 18 10 19 18 15 13 12 13 14 15 14 15 14 13 12 12 8 5 8 8 10 10 10 9 9 10 10 9 9 8 7 7 8 9 9
8 2 7 6 9 4 10 5 12 20 21 18 17 16 14 12 11 12 12 13 12 11 11 11 12 10 6 6 6 6 7 8 9 9 9 9 7 8 9 9 8 8 9 9
6 9 3 5 1 5 6 10 14 19 14 18 20 17 11 11 10 10 10 10 9 9 10 9 9 8 7 6 8 9 8 5 4 6 7 7 8 8 6 7 8 8 9 10
9 8 14 15 14 11 5 8 11 14 14 16 17 10 10 11 10 8 9 9 6 7 8 10 8 9 8 8 9 9 10 9 7 8 7 5 4 6 5 4 6 6 10 10
10 7 3 6 4 4 8 3 14 13 12 11 8 10 15 11 8 7 6 7 3 5 6 7 8 8 7 8 9 9 9 9 10 7 7 7 5 5 6 7 6 8 8 8
7 7 5 8 2 3 7 8 9 9 10 17 13 11 9 7 7 4 5 5 5 4 6 6 8 8 8 8 10 9 9 8 9 10 8 7 7 6 8 8 8 7 7 7
7 7 9 11 12 9 10 9 9 9 7 8 7 6 6 5 4 5 7 6 7 6 6 10 9 8 7 8 8 8 9 11 10 8 9 8 6 8 8 7 6 6 5 4
4 9 8 7 7 6 6 9 5 7 8 4 6 5 7 6 6 6 7 7 5 5 6 7 9 9 9 9 9 10 11 10 9 12 10 9 7 8 5 7 6 7 6 6
6 3 6 5 4 6 4 3 7 6 6 5 5 6 7 6 6 7 4 4 4 3 3 5 7 8 9 10 11 12 12 11 11 9 11 12 8 7 6 6 6 6 6 6
4 6 7 3 11 10 9 6 6 9 6 4 3 7 4 7 5 4 5 4 4 3 4 5 4 6 8 10 10 10 10 10 10 10 11 9 10 10 12 11 12 11 12 10
6 8 6 5 2 4 9 9 8 8 10 10 7 8 7 8 5 3 4 5 4 4 5 6 7 6 6 8 10 10 9 9 10 10 10 10 9 10 11 11 14 14 16 15
7 9 7 7 5 7 9 9 6 8 8 7 9 9 8 9 8 5 3 3 3 4 4 4 5 7 6 7 6 8 10 10 8 8 9 10 10 11 12 13 13 12 9 6
9 5 10 0 3 3 8 10 11 9 9 10 8 7 6 7 8 4 2 3 3 3 2 3 3 5 5 7 8 9 8 8 9 9 9 9 9 10 11 12 13 13 12 12
10 10 7 10 7 5 7 10 13 13 11 12 12 12 9 5 7 6 5 4 3 3 5 1 4 2 7 7 8 9 9 11 8 9 9 10 10 10 10 11 12 12 12 13
10 9 9 9 9 11 8 8 6 12 12 11 11 11 12 11 7 7 8 8 6 4 3 4 0 4 6 8 9 9 8 9 14 9 10 9 9 11 10 11 13 12 13 14
6 6 6 7 9 10 9 3 2 10 5 7 7 13 12 12 10 9 9 7 7 6 8 7 4 2 3 5 6 8 8 9 9 10 10 11 11 11 11 11 12 13 14 15
3 5 5 6 6 8 9 7 5 7 11 7 8 9 14 13 12 9 7 8 8 8 9 10 11 6 6 8 5 5 6 8 9 9 9 13 12 12 11 11 12 13 14 14
6 9 10 11 11 10 11 14 17 14 11 11 13 11 9 12 13 10 8 8 8 5 7 11 10 5 5 6 2 4 5 7 8 9 9 9 10 11 13 15 15 14 13 13
9 7 5 4 6 9 12 13 4 11 14 17 17 10 11 10 10 11 8 9 12 9 9 9 8 4 4 2 4 6 3 6 8 8 9 9 10 12 12 12 12 13 13 13
11 5 1 7 7 7 6 2 10 12 11 4 13 15 15 11 8 11 11 10 5 14 8 8 8 8 6 7 6 5 5 5 6 5 7 7 9 10 11 12 12 12 13 14
3 2 4 7 8 7 7 8 9 8 13 10 12 12 10 7 6 7 10 11 8 11 8 7 11 15 13 6 6 8 6 4 7 5 5 7 8 8 10 10 11 11 11 12
8 6 5 7 11 11 12 11 8 9 9 9 10 9 9 8 6 3 10 2 10 15 8 4 10 14 12 6 8 4 5 5 6 5 2 6 6 7 8 9 10 10 9 11
6 8 6 8 7 7 8 6 4 5 7 6 8 7 5 6 4 3 4 8 11 8 9 10 15 14 8 9 9 5 5 6 6 4 4 4 6 6 7 9 8 9 8 8
6 7 5 5 6 5 4 4 4 5 5 4 5 5 6 6 4 6 7 6 14 9 6 7 8 10 9 10 8 5 6 4 5 6 6 2 4 5 5 7 7 8 8 7
4 7 7 3 5 6 4 3 4 4 4 4 5 5 3 1 4 5 4 9 3 2 5 1 7 9 7 5 6 7 4 3 6 6 2 4 3 3 5 4 5 6 6 5
Wind_Direction
218 295 175 194 215 198 238 270 84 125 143 150 143 136 122 112 105 100 96 92 87 81 76 62 55 44 44 11 21 18 34 29 21 355 306 183 210 224 219 207 206 210 218 232
106 356 348 178 208 206 232 259 133 168 125 110 102 116 118 104 96 87 82 79 73 78 73 69 57 65 83 38 34 20 30 32 14 18 27 26 348 280 244 243 239 218 220 228
278 130 358 357 129 163 277 330 131 127 135 120 125 120 113 106 98 93 88 83 82 75 76 78 81 79 69 53 50 41 36 37 21 14 24 22 10 12 342 285 261 256 241 233
300 200 228 71 23 319 222 202 82 123 150 140 132 122 116 104 97 93 87 83 76 76 70 58 66 51 91 115 130 93 61 29 26 33 21 10 13 14 1 351 315 283 267 254
270 266 191 120 230 241 194 149 110 133 158 127 119 108 102 99 96 91 90 79 65 62 84 67 51 55 17 35 63 41 44 53 50 43 15 10 2 351 350 343 343 329 292 275
264 271 271 32 65 1 312 166 114 136 126 133 141 175 141 139 123 100 81 73 53 55 59 62 33 39 24 31 43 28 9 2 14 5 3 358 340 330 308 303 308 308 317 298
227 243 130 107 46 329 212 65 128 146 153 160 116 60 110 115 108 97 86 77 50 56 58 45 31 20 24 17 27 8 352 344 342 347 328 319 344 314 314 305 297 288 295 298
248 238 178 96 157 306 56 76 77 95 109 94 105 115 126 120 120 110 91 69 46 53 49 37 36 22 12 22 6 353 341 330 327 323 322 326 313 313 300 284 270 274 278 284
5 76 61 57 83 90 94 86 87 97 75 94 131 140 125 122 127 102 77 58 36 18 40 44 33 14 2 358 344 349 339 328 321 304 299 288 301 293 279 282 282 259 275 293
345 128 115 97 96 108 106 135 127 128 139 171 163 135 143 133 124 114 95 74 31 33 39 39 19 10 359 345 349 347 340 330 325 320 298 286 273 281 305 303 315 340 337 343
262 198 136 178 185 148 149 118 150 136 154 157 148 161 131 128 92 77 83 92 85 51 19 29 18 3 356 356 359 353 340 329 320 319 338 326 318 318 309 307 301 300 301 293
290 34 352 77 169 180 164 189 185 161 156 133 207 116 134 114 117 109 88 89 70 57 47 33 0 17 14 1 352 347 338 337 334 326 328 319 316 310 306 277 273 268 259 246
13 13 358 334 32 187 180 184 192 191 176 169 183 136 191 135 115 138 93 77 61 40 42 29 22 30 15 350 1 350 341 331 329 317 312 311 314 310 306 301 288 277 266 255
302 318 292 267 222 227 189 183 168 199 178 194 175 156 194 150 142 157 108 21 71 63 55 33 19 7 0 1 349 328 329 307 313 326 321 317 316 314 315 313 310 311 305 265
311 275 282 234 15 224 195 191 172 219 196 189 191 180 198 172 141 166 141 147 105 102 89 32 349 357 18 354 347 330 329 331 335 319 310 304 301 301 300 302 302 304 304 290
304 289 228 276 261 218 328 214 202 199 213 208 204 168 175 206 174 163 188 133 225 141 113 245 294 11 359 352 355 340 337 335 337 321 319 312 313 313 304 299 299 300 301 308
303 273 273 245 260 247 232 273 229 228 211 214 198 166 167 188 185 197 205 178 174 165 213 249 248 25 359 335 11 343 331 340 340 329 331 324 316 311 303 306 304 294 288 297
334 316 310 295 291 265 227 254 281 256 270 239 214 159 179 184 196 207 209 169 158 194 214 214 213 352 293 317 16 331 358 352 349 341 334 327 326 315 299 294 292 287 288 293
224 257 268 273 254 237 233 229 196 229 246 254 246 215 178 189 196 208 188 183 205 217 224 194 167 203 264 98 26 332 2 349 347 341 335 325 318 316 309 305 300 296 294 294
234 228 239 253 245 249 225 223 223 222 222 235 225 217 222 190 196 196 188 192 227 196 180 171 189 236 251 119 71 317 346 340 337 333 333 319 314 311 309 303 300 297 292 286
15 303 228 162 275 234 235 250 276 272 229 214 229 219 217 209 191 180 186 212 207 205 199 171 214 221 228 207 284 270 308 329 326 335 332 321 316 309 308 303 300 299 295 291
359 356 225 279 275 276 260 222 304 259 272 165 264 230 229 222 216 198 193 221 171 166 205 207 200 196 225 182 269 285 270 274 301 327 330 312 308 309 306 307 302 302 300 294
316 294 311 11 348 325 313 253 249 231 242 234 250 256 237 203 157 272 207 204 206 171 220 262 154 171 188 216 270 271 264 293 302 314 315 324 308 309 307 305 304 301 301 300
8 336 316 338 353 330 330 316 314 307 309 306 299 273 255 207 173 149 281 254 165 159 198 188 172 179 193 243 266 267 240 228 265 275 284 318 303 310 310 311 312 306 304 306
5 331 32 13 330 346 340 339 353 10 330 317 307 302 147 93 59 68 276 256 138 182 220 204 177 187 222 256 266 245 216 217 229 254 244 302 311 319 319 322 318 320 317 320
29 354 14 360 3 325 9 23 39 359 350 83 30 61 63 81 100 253 225 192 219 181 245 160 192 197 234 250 260 268 251 139 187 236 214 259 317 314 311 321 325 328 329 332
92 15 73 344 45 52 69 86 79 74 47 57 65 45 75 244 268 265 156 235 275 250 236 1 279 193 240 300 304 34 336 229 194 255 251 236 255 324 332 309 321 319 314 325